Location: Ellerstadt
(49.4644°N, 8.2615°E)
Time: 05:13:26
(UTC+00:00)

Terra - Pass Details

Date: 03 March 2021
Orbit: 701 x 703 km, 98.2° (Epoch: 11 April)

Event Time Altitude Azimuth Distance (km) Brightness Sun altitude
Exits shadow 21:21:35 15° 346° (NNW) 1,844 4.4 -38.3°
Drops below altitude 10° 21:22:26 10° 346° (NNW) 2,184 4.9 -38.4°
Sets 21:24:42 0° 346° (NNW) 3,106 5.8 -38.6°
